TimeEST,TemperatureF,Dew PointF,Humidity,Sea Level PressureIn,VisibilityMPH,Wind Direction,Wind SpeedMPH,Gust SpeedMPH,PrecipitationIn,Events,Conditions,WindDirDegrees,DateUTC
12:07 AM,62.6,53.6,72,30.11,10.0,SW,12.7,18.4,N/A,,Clear,220,2012-12-05 05:07:00
12:15 AM,62.6,53.6,72,30.11,10.0,SW,12.7,18.4,N/A,,Clear,220,2012-12-05 05:15:00
12:35 AM,62.6,53.6,72,30.10,10.0,SW,12.7,17.3,N/A,,Clear,220,2012-12-05 05:35:00
12:55 AM,62.6,55.4,77,30.09,10.0,SW,11.5,20.7,N/A,,Clear,230,2012-12-05 05:55:00
1:15 AM,62.6,55.4,77,30.09,10.0,SW,12.7,19.6,N/A,,Clear,220,2012-12-05 06:15:00
1:35 AM,62.6,55.4,77,30.09,10.0,SW,10.4,21.9,N/A,,Clear,220,2012-12-05 06:35:00
1:56 AM,62.6,55.4,77,30.09,10.0,SW,12.7,17.3,N/A,,Scattered Clouds,230,2012-12-05 06:56:00
2:15 AM,62.6,55.4,77,30.08,10.0,SW,12.7,18.4,N/A,,Scattered Clouds,220,2012-12-05 07:15:00
2:55 AM,62.6,55.4,77,30.07,10.0,SW,12.7,18.4,N/A,,Mostly Cloudy,220,2012-12-05 07:55:00
3:15 AM,62.6,55.4,77,30.06,10.0,SW,10.4,19.6,N/A,,Scattered Clouds,230,2012-12-05 08:15:00
3:35 AM,62.6,55.4,77,30.06,10.0,SW,9.2,18.4,N/A,,Mostly Cloudy,220,2012-12-05 08:35:00
3:55 AM,62.6,55.4,77,30.05,10.0,SW,11.5,20.7,N/A,,Overcast,230,2012-12-05 08:55:00
4:15 AM,62.6,55.4,77,30.05,10.0,SW,12.7,19.6,N/A,,Mostly Cloudy,230,2012-12-05 09:15:00
4:35 AM,62.6,55.4,77,30.05,10.0,SW,11.5,17.3,N/A,,Scattered Clouds,230,2012-12-05 09:35:00
4:55 AM,62.6,55.4,77,30.04,10.0,SW,11.5,-,N/A,,Mostly Cloudy,230,2012-12-05 09:55:00
5:15 AM,62.6,55.4,77,30.05,10.0,SW,12.7,-,N/A,,Mostly Cloudy,230,2012-12-05 10:15:00
5:35 AM,62.6,55.4,77,30.05,10.0,WSW,10.4,19.6,N/A,,Mostly Cloudy,240,2012-12-05 10:35:00
5:55 AM,62.6,55.4,77,30.05,10.0,SW,11.5,18.4,N/A,,Mostly Cloudy,230,2012-12-05 10:55:00
6:16 AM,62.6,55.4,77,30.05,10.0,WSW,12.7,17.3,N/A,,Overcast,240,2012-12-05 11:16:00
6:35 AM,62.6,55.4,77,30.06,10.0,WSW,11.5,18.4,N/A,,Overcast,240,2012-12-05 11:35:00
6:55 AM,62.6,55.4,77,30.06,10.0,WSW,11.5,20.7,N/A,,Overcast,240,2012-12-05 11:55:00
7:15 AM,62.6,55.4,77,30.06,10.0,WSW,9.2,19.6,N/A,,Overcast,240,2012-12-05 12:15:00
7:35 AM,62.6,53.6,72,30.09,10.0,West,10.4,-,N/A,,Mostly Cloudy,270,2012-12-05 12:35:00
7:55 AM,60.8,53.6,77,30.10,10.0,WSW,8.1,-,N/A,,Scattered Clouds,250,2012-12-05 12:55:00
9:56 AM,60.8,42.8,52,30.14,10.0,NNW,16.1,23.0,N/A,,Overcast,330,2012-12-05 14:56:00
10:15 AM,59.0,44.6,59,30.15,10.0,NNW,13.8,20.7,N/A,,Overcast,330,2012-12-05 15:15:00
10:36 AM,59.0,44.6,59,30.14,10.0,NW,11.5,18.4,N/A,,Overcast,320,2012-12-05 15:36:00
10:55 AM,57.2,44.6,63,30.15,10.0,NW,10.4,20.7,N/A,,Overcast,320,2012-12-05 15:55:00
11:15 AM,57.2,44.6,63,30.15,10.0,NW,11.5,17.3,N/A,Rain,Light Rain,320,2012-12-05 16:15:00
11:35 AM,55.4,44.6,67,30.14,10.0,NW,8.1,-,N/A,Rain,Light Rain,320,2012-12-05 16:35:00
11:55 AM,55.4,44.6,67,30.14,10.0,WNW,8.1,-,N/A,,Light Drizzle,300,2012-12-05 16:55:00
12:15 PM,55.4,42.8,63,30.13,10.0,NW,9.2,-,N/A,Rain,Light Rain,310,2012-12-05 17:15:00
12:38 PM,55.4,44.6,67,30.13,10.0,NW,8.1,-,N/A,,Light Drizzle,310,2012-12-05 17:38:00
12:55 PM,55.4,44.6,67,30.12,10.0,NW,8.1,-,N/A,,Light Drizzle,310,2012-12-05 17:55:00
1:15 PM,55.4,44.6,67,30.12,10.0,WNW,5.8,-,N/A,,Light Drizzle,300,2012-12-05 18:15:00
1:35 PM,55.4,48.2,77,30.11,10.0,WNW,4.6,-,0.01,Rain,Light Rain,290,2012-12-05 18:35:00
1:55 PM,55.4,48.2,77,30.11,10.0,West,5.8,-,0.01,,Mostly Cloudy,280,2012-12-05 18:55:00
2:15 PM,55.4,48.2,77,30.11,10.0,West,8.1,-,N/A,,Scattered Clouds,280,2012-12-05 19:15:00
2:35 PM,55.4,46.4,72,30.12,10.0,WNW,10.4,-,N/A,,Clear,300,2012-12-05 19:35:00
2:55 PM,55.4,41.0,58,30.12,10.0,WNW,11.5,17.3,N/A,,Clear,300,2012-12-05 19:55:00
3:15 PM,55.4,42.8,63,30.12,10.0,WNW,8.1,-,N/A,,Mostly Cloudy,290,2012-12-05 20:15:00
3:35 PM,55.4,42.8,63,30.12,10.0,WNW,8.1,-,N/A,,Overcast,300,2012-12-05 20:35:00
3:55 PM,55.4,41.0,58,30.13,10.0,NW,8.1,-,N/A,,Scattered Clouds,310,2012-12-05 20:55:00
4:15 PM,55.4,39.2,54,30.13,10.0,NW,9.2,-,N/A,,Clear,310,2012-12-05 21:15:00
4:35 PM,53.6,39.2,58,30.14,10.0,NW,8.1,-,N/A,,Clear,320,2012-12-05 21:35:00
4:55 PM,51.8,39.2,62,30.14,10.0,WNW,5.8,-,N/A,,Clear,300,2012-12-05 21:55:00
5:15 PM,50.0,39.2,66,30.15,10.0,NW,4.6,-,N/A,,Clear,310,2012-12-05 22:15:00
5:35 PM,48.2,37.4,66,30.15,10.0,WNW,4.6,-,N/A,,Clear,300,2012-12-05 22:35:00
5:55 PM,48.2,39.2,71,30.16,10.0,WNW,3.5,-,N/A,,Clear,300,2012-12-05 22:55:00
6:15 PM,46.4,37.4,71,30.16,10.0,NW,4.6,-,N/A,,Clear,310,2012-12-05 23:15:00
6:35 PM,46.4,37.4,71,30.17,10.0,NW,4.6,-,N/A,,Clear,320,2012-12-05 23:35:00
6:55 PM,46.4,37.4,71,30.18,10.0,NW,4.6,-,N/A,,Clear,310,2012-12-05 23:55:00
7:16 PM,44.6,37.4,76,30.18,10.0,NNE,4.6,-,N/A,,Clear,20,2012-12-06 00:16:00
7:35 PM,46.4,37.4,71,30.19,10.0,NNW,8.1,-,N/A,,Clear,330,2012-12-06 00:35:00
7:55 PM,48.2,37.4,66,30.20,10.0,NNW,8.1,-,N/A,,Clear,340,2012-12-06 00:55:00
8:15 PM,50.0,37.4,62,30.21,10.0,NNW,6.9,-,N/A,,Clear,330,2012-12-06 01:15:00
8:35 PM,50.0,35.6,58,30.21,10.0,North,5.8,-,N/A,,Clear,360,2012-12-06 01:35:00
8:55 PM,50.0,35.6,58,30.22,10.0,North,8.1,-,N/A,,Clear,360,2012-12-06 01:55:00
9:15 PM,50.0,33.8,54,30.23,10.0,North,10.4,-,N/A,,Clear,360,2012-12-06 02:15:00
9:35 PM,48.2,33.8,58,30.23,10.0,North,4.6,-,N/A,,Clear,10,2012-12-06 02:35:00
9:55 PM,48.2,33.8,58,30.24,10.0,North,8.1,-,N/A,,Clear,350,2012-12-06 02:55:00
10:15 PM,48.2,33.8,58,30.24,10.0,North,10.4,-,N/A,,Clear,360,2012-12-06 03:15:00
10:56 PM,46.4,30.2,53,30.25,10.0,North,11.5,20.7,N/A,,Clear,360,2012-12-06 03:56:00
11:16 PM,46.4,30.2,53,30.25,10.0,North,10.4,18.4,N/A,,Clear,360,2012-12-06 04:16:00
11:37 PM,46.4,30.2,53,30.25,10.0,North,10.4,20.7,N/A,,Clear,10,2012-12-06 04:37:00
11:58 PM,44.6,28.4,53,30.26,10.0,North,9.2,16.1,N/A,,Clear,10,2012-12-06 04:58:00